sat.trackr.live / text

‹ back to catalog

STARLINK-34840

NORAD 66406 · 2025-257AC

PAYLOAD ACTIVE UNKNOWN

§ Identity

Operator
Country
US
Launch date
2025-11-09
Launch site
AFETR
Launch vehicle
Mass (kg)
RCS (m²)

Purposes: comms

External: N2YO · Heavens-Above · Gunter

§ Orbital elements

Epoch: 2026-05-25T05:11:17.553696Z

Period
93.85 min
Inclination
53.1585°
Eccentricity
0.0000738
Mean motion
15.34423320 rev/d
Perigee alt
462.1 km
Apogee alt
463.1 km
Semi-major
6,840.8 km
B*
1.1326e-3
RAAN
220.5879°
Arg perigee
62.3607°
Mean anomaly
297.7471°
Rev number
3,140

§ Raw data

STARLINK-348401 66406U 25257AC  26145.21617539  .00038115  00000+0  11326-2 0  99972 66406  53.1585 220.5879 0000738  62.3607 297.7471 15.34423320 31408

JSON: /api/v1/satellites/66406 · /tle

For live sub-satellite position, see the globe view (requires WebGL).

§ Visibility from observer

Set your observer location to see the next 7 days of passes ≥ 10°. The values pass through the URL so the page stays shareable.

No JS? Fill the form by hand. The geolocation button needs JavaScript.